Location: Unspecified
(50.7693°N, 0.0000°E)
Time: 17:00:46
(UTC+00:00)

Vanguard 1 Rocket - Pass Details

Date: 27 June 2019
Orbit: 651 x 4225 km, 34.3° (Epoch: 16 July)

Event Time Altitude Azimuth Distance (km) Brightness Sun altitude
Rises 21:20:06 0° 269° (W) 5,880 12.1 -7.7°
Reaches altitude 10° 21:27:14 10° 246° (WSW) 3,973 10.8 -8.3°
Maximum altitude 21:31:01 13° 223° (SW) 3,266 10.1 -8.7°
Drops below altitude 10° 21:34:08 10° 199° (SSW) 3,091 9.8 -9.0°
Enters shadow 21:36:32 - 180° (S) 3,284 9.8 -9.2°
